User: anonymous   Login
Location: Waning Moon II Observatory
(30.3730°N, 89.7620°W)
Time: 18:39:40
(UTC-05:00)
Language:

Cosmos 1825 Rocket - Orbit

View from above orbital plane
View from above orbital plane
View from above satellite
View from above satellite

Ground track
Ground track

The orbit data is extracted from the following two-line orbital elements,

1 17567U 87024B   17112.88472462 +.00000162 +00000-0 +16656-4 0  9997
2 17567 082.5291 250.7758 0019627 164.3608 195.8218 14.83648410628269
Epoch (UTC): 22 April 2017 21:14:00
Eccentricity: 0.0019627
inclination: 82.5291°
perigee height: 604 km
apogee height: 631 km
right ascension of ascending node: 250.7758°
argument of perigee: 164.3608°
revolutions per day: 14.83648410
mean anomaly at epoch: 195.8218°
orbit number at epoch: 62826

The dashed part of the orbit path shows where the satellite is in the earth's shadow,  

DLR